www.pogodaiklimat.ru

Погода и климат >> Архив погоды >> Россия >> Приморский край >> Преображение


АРХИВ ПОГОДЫ в Преображении

Время (UTC), дата Ветер
(напр.,м/с)
 
Видим.   Явления Облачность Т
(С)
Тd
(С)
f
(%)
Тe
(С)
Тes
(С)
Комфортность P
(гПа)
Po
(гПа)
Тmin
(С)
Tmax
(С)
R
(мм)
R24
(мм)
S
(см)
21 19.03 В 2 50 км 4/1 200 м
[St Cc]
+0.1 -1.1 92 -4 -4 1011.5 1006.2 -0.0
00 20.03 В 4 50 км 10/1 300 м
[St Cs]
+2.3 -0.3 83 -3 0 1010.9 1005.6
03 20.03 ЮВ 3 50 км 10/1 300 м
[St Cs]
+3.2 -0.3 78 -1 +7 1009.6 1004.4
06 20.03 ЮЗ 2 20 км 10/8 200 м
[St Cs]
+0.9 -0.3 92 -3 -2 1008.5 1003.2
09 20.03 штиль 0 20 км 10/5 200 м
[St As op]
+0.8 +0.4 97 -1 -1 1008.0 1002.7 +3.6
12 20.03 В 2 50 км 10/0
[As trans]
+2.2 +0.2 87 -1 -1 1008.2 1003.0
15 20.03 В 7-14
{17}
50 км {дождь} 10/1 300 м
[St As op]
+2.3 -0.7 81 -4 -4 1010.8 1005.6
18 20.03 В 5
{17}
50 км {дождь} 10/0
[As op]
+1.1 -2.4 77 -5 -5 1009.7 1004.4
21 20.03 СВ 7-14
{14}
4000 м снег 10/10 300 м
[Frnb Ns]
-0.4 -2.0 89 -8 -8 1007.9 1002.6 -0.4 3 3
00 21.03 СВ 4
{14}
10 км снег {метель} 10/10 300 м
[Frnb Ns]
-0.0 -2.9 81 -5 -5 1005.0 999.8 -0.6
03 21.03 СВ 3
{11}
10 км снег 10/10 300 м
[Frnb Ns]
-0.0 -1.6 89 -5 -5 1001.2 996.0
06 21.03 СВ 3 20 км слаб. снег 10/10 300 м
[Frnb Ns]
+1.0 -1.8 82 -3 -3 997.4 992.2 +1.2 7
09 21.03 В 2 20 км слаб. снег 10/10 300 м
[Frnb Ns]
-0.6 -1.3 95 -5 -5 997.9 992.7 +1.2 7
12 21.03 В 4 4000 м слаб. снег 10/10 300 м
[Frnb Ns]
-1.3 -1.7 97 -7 -7 1001.8 996.5
15 21.03 ЮВ 1 4000 м слаб. снег 10/10 300 м
[Frnb Ns]
-2.1 -2.5 97 -5 -5 1005.0 999.7
18 21.03 С 1 50 км {снег} 10/0
[As op]
-2.7 -9.7 59 -4 -4 1006.4 1001.1
21 21.03 ЮЗ 1 50 км 1/0
[Ac lent]
-2.9 -11.5 51 -4 -4 1009.1 1003.8 -3.1 5 15
00 22.03 З 3 50 км 3/3 600 м
[Cu hum]
-0.6 -11.9 42 -5 -1 1011.7 1006.4 -3.3
03 22.03 ЮВ 1 50 км 5/5 600 м
[Cu med, cong]
+2.0 -10.7 38 +1 +9 опасность
простуды
1011.6 1006.3
06 22.03 З 2 50 км 4/4 600 м
[Cu hum]
+1.6 -11.9 36 -1 +3 1011.8 1006.5
09 22.03 СВ 1 50 км 3/3 600 м
[Cu hum]
-0.6 -13.4 37 -2 -2 1013.9 1008.5 +2.8
12 22.03 СВ 1 50 км ясно -2.7 -15.2 38 -4 -4 1016.7 1011.3
15 22.03 С 3 50 км 4/0
[Ci fib]
-5.4 -14.5 49 -10 -10 1017.8 1012.3
18 22.03 С 4 50 км 10/0
[Cs]
-6.1 -13.9 54 -12 -12 1017.5 1012.0
21 22.03 С 4 50 км 3/0
[Ci fib]
-7.5 -14.6 57 -14 -14 1016.7 1011.2 -7.8 5
00 23.03 Ю 2 50 км ясно -2.1 -12.0 47 -5 +1 1015.9 1010.5 -8.5
03 23.03 ЮЗ 3 50 км 8/4 600 м
[Cu hum Ac trans]
+1.1 -6.4 57 -3 +1 1013.4 1008.0
06 23.03 ЮЗ 2 20 км слаб. ливневой снег 9/9 600 м
[Cb cap]
+0.8 -4.8 66 -2 -2 1010.2 1004.9
09 23.03 З 4
{11}
50 км в посл. час ливневой снег 6/3 600 м
[Cb cap Ac trans]
-1.0 -7.3 62 -6 -6 1010.3 1005.0 +2.1 1
12 23.03 Ю 2
{11}
50 км {ливн. осадки} ясно -2.0 -13.4 41 -5 -5 1012.3 1006.9
15 23.03 З 2
{12}
50 км ясно -3.6 -15.7 39 -7 -7 1014.4 1009.0
18 23.03 В 1 50 км ясно -4.6 -12.8 53 -6 -6 1014.0 1008.6
21 23.03 СЗ 2 50 км ясно -7.3 -15.0 54 -11 -11 1014.7 1009.2 -7.3 3
00 24.03 ЮЗ 1 50 км ясно -0.6 -11.7 43 -2 +6 1014.4 1009.1
03 24.03 ЮЗ 4 50 км ясно +2.0 -5.1 59 -2 +6 1012.2 1006.9
06 24.03 ЮЗ 2
{12}
50 км 6/5 600 м
[Cb cap Ci fib]
+3.7 -2.3 65 +1 +5 1010.1 1004.9
09 24.03 ЮЗ 1
{11}
50 км 8/0
[Cc]
+1.2 -1.9 80 -1 -1 1009.8 1004.5 +4.2
12 24.03 штиль 0 50 км 5/0
[Ci fib]
+0.4 -1.4 88 -1 -1 1010.0 1004.7
15 24.03 штиль 0 50 км 3/0
[Ci fib]
-0.7 -2.5 88 -2 -2 1008.6 1003.3
18 24.03 С 2 50 км ясно -1.7 -3.6 87 -6 -6 1006.4 1001.1
21 24.03 С 1 50 км 1/0
[Ci fib]
-1.4 -3.4 86 -4 -4 1005.2 999.9 -3.1 0
00 25.03 ЮЗ 1 50 км 10/0
[Ci fib]
+3.7 -1.9 67 +3 +9 1005.8 1000.6
03 25.03 ЮЗ 2 50 км 1/1 600 м
[Cu med, cong]
+7.1 -0.5 58 +5 +17 опасность
простуды
1005.4 1000.3
06 25.03 ЮЗ 2
{10}
50 км 3/1 600 м
[Cu hum Cc]
+10.7 -3.6 36 +10 +16 1004.3 999.2
09 25.03 Ю 1
{10}
50 км ясно +6.5 -3.7 48 +6 +6 1006.2 1001.0 +12.2
12 25.03 Ю 1 50 км ясно +3.4 -2.9 63 +2 +2 1007.0 1001.8
15 25.03 СЗ 1 50 км ясно +1.8 +0.9 94 -0 -0 1006.0 1000.8
18 25.03 З 1 50 км ясно +1.4 -1.0 84 -0 -0 1005.4 1000.2
21 25.03 З 2
{11}
50 км ясно +4.9 -14.3 23 +3 +3 1005.7 1000.5 +1.1
00 26.03 З 4-11
{13}
50 км ясно +4.8 -17.6 18 +2 +6 1006.7 1001.5
03 26.03 З 3-11
{11}
50 км 3/3 600 м
[Cu hum]
+7.0 -13.6 21 +5 +13 1007.0 1001.8
06 26.03 СЗ 3
{11}
50 км 3/3 600 м
[Cu hum]
+6.5 -13.0 23 +4 +9 1008.0 1002.9
09 26.03 З 3
{11}
50 км 3/3 600 м
[Cu hum]
+4.7 -14.1 24 +2 +2 1009.9 1004.7 +7.3
12 26.03 З 3 50 км ясно +2.5 -10.2 39 -1 -1 1012.9 1007.6
15 26.03 СЗ 1
{11}
50 км ясно +2.1 -13.5 30 +2 +2 1012.9 1007.6
18 26.03 З 1
{10}
50 км ясно +1.2 -12.9 34 0 0 1013.7 1008.4

 

Местоположение метеостанции Преображение (Приморский край, Россия): широта 42.90 долгота 133.90 высота над уровнем моря 43 м.

В архиве по умолчанию представлена погода в Преображении за последнюю неделю. Архивные данные за месяц целиком и за предыдущие месяцы, начиная с января 2011 года, Вы можете получить, выбрав интересующий диапазон дат из раскрывающегося списка и нажав кнопку "Ввод!".


*Определитесь, кто Вы:
робот инопланетянин человек

Внимание! Время в таблицах - всемирное. Для получения местного времени необходимо прибавить поправку, которая равна 10 ч.

Смотрите также архив погоды в соседних городах и на ближайших метеорологических станциях:

Погода в Лазо (Приморский край, Россия) (56 км)
Погода в Лучегорске (Приморский край, Россия) (75 км)
Погода в Партизанске (Приморский край, Россия) (78 км)
Погода в Находке (Приморский край, Россия) (90 км)
Погода в Многоудобном (Приморский край, Россия) (132 км)
Погода в Чугуевке (Приморский край, Россия) (139 км)
Погода в Анучино (Приморский край, Россия) (139 км)
Погода в Ольге (Приморский край, Россия) (148 км)
Погода в Дальнегорске (Приморский край, Россия) (153 км)
Погода на Мысе Назимова (Приморский край, Россия) (164 км)

Пояснения к столбцам:

Ветер - указаны скорость ветра в м/с - средняя за 10 мин, порывы в срок и между сроками (в фигурных скобках) и направление, откуда дует ветер: С - северный, СВ - северо-восточный, В - восточный, ЮВ - юго-восточный, Ю - южный, ЮЗ - юго-западный, З - западный, СЗ - северо-западный.
Видимость - горизонтальная дальность видимости в метрах или километрах. При видимости от 1 до 10 км при отсутствии осадков обычно наблюдается дымка, при ухудшении видимости до 1 км и менее - туман. В сухую погоду видимость может ухудшаться дымом, пылью или мглою.
Явления - указаны атмосферные явления, наблюдавшиеся в срок или в последний час перед сроком; фигурными скобками обозначены явления, наблюдавшиеся между сроками (за 1-3 часа до срока); квадратными скобками обозначены град или гололедные отложения с указанием их диаметра в мм.
Облачность - указаны через наклонную черту общая и нижняя облачность в баллах и высота нижней границы облаков в метрах; квадратными скобками обозначены формы облаков: Ci - перистые, Cs - перисто-слоистые, Cc - перисто-кучевые, Ac - высококучевые, As - высокослоистые, Sc - слоисто-кучевые, Ns - слоисто-дождевые, Cu - кучевые, Cb - кучево-дождевые. Подробнее классификацию облаков см. в Атласе облаков (PDF).
T - Температура воздуха - температура, измеренная на высоте 2 м над землей.
Td - Температура точки росы - температура, при понижении до которой содержащийся в воздухе водяной пар достигнет насыщения.
f - Относительная влажность воздуха - влажноcть воздуха, измеренная на высоте 2 м над землей.
Te - Эффективная температура - температура, которую ощущает одетый по сезону человек в тени. Характеристика душности погоды. При расчете учитывается влияние влажности воздуха и скорости ветра на теплоощущения человека.
Tes - Эффективная температура на солнце - температура, которую ощущает человек, с поправкой на солнечный нагрев. Характеристика знойности погоды. Зависит от высоты солнца над горизонтом, облачности и скорости ветра. Ночью, в пасмурную погоду, а также при ветре 12 м/с и более поправка равна нулю.
P - Атмосферное давление - приведенное к уровню моря атмосферное давление.
Po - Атмосферное давление - измеренное на уровне метеостанции атмосферное давление.
Tmin - Минимальная температура - минимум температуры воздуха на высоте 2 м над землей.
Tmax - Максимальная температура - максимум температуры воздуха на высоте 2 м над землей.
R - Количество осадков - Количество выпавших осадков за период времени, мм. При наведении курсора мыши на число - период времени, за который выпало указанное количество осадков.
R24 - Количество осадков - Количество выпавших осадков за 24 часа, мм.
S - Снежный покров - Высота снежного покрова, см. При наведении курсора мыши на число - состояние снежного покрова и степень покрытия местности в баллах.